Cloud_Cover
59 66 5 5 18 82 16 88 100 75 28 48 5 6 28 85 100 100 100 100 97 93
65 5 5 5 5 7 80 97 22 29 5 5 5 5 5 96 100 100 100 100 95 93
100 45 5 5 5 5 27 75 5 5 5 5 4 21 95 100 100 100 100 100 100 60
100 46 5 5 5 5 53 68 1 5 5 56 100 100 100 100 100 100 100 100 100 90
100 5 5 5 3 7 100 100 96 97 100 100 100 100 100 100 100 100 100 100 100 100
100 27 5 5 5 50 65 100 100 100 100 67 88 57 100 100 100 100 100 100 100 100
97 60 5 5 3 56 68 100 100 87 11 100 100 100 100 100 100 100 100 100 100 100
36 7 56 5 5 99 82 29 26 25 82 100 100 100 100 100 100 100 100 100 100 100
100 57 12 5 46 100 100 31 41 100 100 100 100 100 100 100 100 100 100 100 100 100
100 53 8 74 15 100 100 100 100 100 100 100 100 100 100 100 100 100 100 100 100 100
100 84 79 100 96 100 100 100 100 100 100 100 100 100 100 100 100 100 100 100 100 100
38 100 100 100 100 100 100 100 100 99 99 100 100 100 100 100 100 100 100 100 100 100
5 73 100 100 100 100 100 100 100 82 100 100 100 100 100 100 100 100 100 100 100 100
17 30 100 100 100 100 100 97 81 100 100 100 100 100 100 100 100 100 100 100 100 96